Vorticity
12 15 17 11 6 20 34 14 19 14 14 13 12 14 16 12 10 10 11 11 13 12 14 14 12 13 13 10 9 7 6 9 8 7 8 7 2 12 15 5 13 6 13 7 22 12 14 16 15 5 4 10 12 10
20 19 -1 10 17 8 6 30 36 13 8 14 12 9 10 12 13 12 14 15 12 10 3 14 5 16 14 18 15 7 5 0 6 7 10 5 12 15 0 11 7 -2 -5 28 10 12 5 5 17 16 5 5 8 9
17 29 11 21 17 15 9 4 13 30 42 38 21 12 14 14 13 10 12 14 12 13 9 15 11 11 16 1 14 10 4 5 7 5 2 9 8 8 7 8 -2 16 4 44 10 5 4 9 -1 19 17 8 4 10
25 21 22 2 12 22 18 12 2 3 9 16 22 32 36 29 27 25 20 22 21 18 12 13 3 14 14 7 9 27 8 6 3 2 6 10 13 4 3 8 21 13 27 13 13 -6 1 2 4 10 22 3 13 0
29 38 43 39 44 7 16 28 15 5 5 5 3 9 21 19 18 24 24 29 26 22 21 16 11 5 29 8 5 10 16 13 8 5 17 18 -4 -1 5 7 16 31 22 14 5 2 5 2 6 13 7 22 14 -7
32 48 63 51 39 30 16 22 21 18 10 14 8 5 32 25 16 25 33 20 21 11 0 -9 20 -1 3 18 23 12 10 9 9 16 15 9 -11 -4 11 26 26 29 7 -9 1 1 10 11 12 12 13 18 15 22
21 46 36 31 37 30 -4 5 23 23 8 11 12 27 26 16 37 23 22 17 -5 -5 13 16 38 14 0 21 1 8 7 12 9 12 8 4 -4 16 26 26 15 9 10 7 2 5 10 9 10 12 14 13 15 14
10 23 26 35 30 15 16 25 24 14 8 16 32 21 12 27 25 10 -2 -8 6 -35 -6 13 14 19 21 16 15 14 0 4 16 10 8 10 16 28 17 8 13 15 12 11 10 10 10 12 14 15 17 17 14 12
43 18 2 20 26 21 7 4 9 18 13 39 10 13 24 37 24 3 6 9 20 -9 -10 17 13 14 24 6 8 11 11 13 10 19 16 20 23 7 11 8 6 9 9 9 9 10 16 22 26 27 27 21 16 4
26 33 47 47 28 25 30 29 32 41 25 12 16 26 23 -1 7 -11 -1 22 6 13 11 14 11 2 9 -0 8 -6 2 13 14 16 21 13 12 7 6 9 8 8 8 11 16 33 21 12 17 23 25 21 16 16
15 27 26 28 30 29 30 31 30 27 21 14 23 17 13 -5 -23 -2 8 -7 14 21 5 3 18 3 7 -9 -2 -2 12 14 13 22 8 10 12 5 6 10 7 13 21 23 18 6 10 20 20 21 21 23 13 17
14 16 22 27 28 29 26 22 17 16 19 11 4 16 -10 -7 -6 -6 14 2 17 17 7 7 -2 7 7 0 4 17 13 7 15 9 6 12 6 5 11 9 14 20 16 8 6 6 1 10 24 28 10 10 12 19
-1 11 17 13 5 7 12 15 15 11 -9 -9 -3 -10 -12 2 2 5 3 5 15 20 19 2 -5 5 6 0 18 18 10 9 7 9 10 7 7 11 14 9 15 9 3 5 8 11 14 13 26 19 10 14 12 16
8 5 5 13 13 8 6 9 11 2 -7 -14 -15 -9 2 5 10 15 14 10 8 7 -3 -3 7 15 21 23 23 16 7 7 8 7 10 5 13 11 11 11 11 6 6 9 12 12 20 13 26 18 7 21 20 10
14 12 10 5 1 -1 2 8 11 14 8 1 4 3 0 1 3 2 3 4 6 6 10 18 22 17 18 21 8 6 7 8 8 8 7 12 9 10 13 12 13 5 1 4 13 11 22 28 20 14 11 17 17 16
7 7 11 15 13 9 5 5 5 0 1 7 5 3 14 17 9 9 17 20 12 15 20 18 17 16 9 7 10 8 8 8 9 10 9 10 10 11 13 13 14 16 11 9 9 14 15 15 23 9 14 12 16 15
6 11 14 15 11 7 15 12 10 10 10 4 -8 19 21 15 20 24 26 24 22 20 16 7 8 7 9 10 7 9 9 8 10 9 9 10 10 9 11 10 13 15 14 12 10 10 17 20 15 14 7 18 6 15
9 3 5 5 8 16 16 15 14 18 11 11 13 16 16 18 13 10 10 12 9 13 10 10 9 8 6 6 8 8 10 10 9 10 9 9 9 10 10 10 11 15 19 17 13 5 14 22 12 9 13 10 15 15
9 11 7 2 4 5 9 9 8 10 9 10 9 13 13 11 12 8 6 9 8 11 10 8 5 5 5 8 7 7 9 9 9 10 8 9 10 10 11 10 10 15 19 22 15 10 6 13 19 17 12 10 11 10
12 11 10 12 13 9 4 8 9 10 10 10 11 10 13 13 12 13 10 8 8 8 8 7 6 5 9 7 9 8 10 10 10 10 9 10 11 11 10 9 10 12 16 18 17 15 11 10 9 10 15 18 19 20
17 16 12 9 7 7 8 7 8 14 9 6 9 13 11 13 15 16 14 10 10 8 6 6 8 10 5 11 9 9 10 11 10 9 9 9 10 9 10 9 10 11 12 13 13 14 14 11 12 15 12 10 9 9
13 11 12 14 12 11 9 10 9 8 10 6 8 9 10 10 9 10 9 11 10 10 11 14 9 9 12 10 10 10 10 9 10 10 9 9 9 9 9 9 9 9 10 14 11 6 6 10 12 8 9 14 13 12
15 15 13 12 12 12 13 12 12 12 12 13 12 12 12 13 12 10 11 11 10 9 8 8 11 12 11 9 8 9 10 10 10 10 9 9 9 10 10 9 9 9 9 9 9 10 12 11 7 5 5 7 7 6
10 14 14 14 15 13 13 13 12 12 10 10 8 9 9 10 11 11 11 12 9 10 11 9 8 8 10 11 10 10 10 9 9 9 9 9 9 10 11 13 12 11 10 9 9 9 8 8 10 13 15 15 12 8
10 9 8 11 13 16 16 15 15 15 16 15 15 14 13 13 13 12 11 11 12 13 12 12 11 10 10 11 11 10 10 10 9 9 9 8 10 11 11 12 12 11 13 13 13 13 14 14 15 14 12 10 10 11
10 7 6 7 7 8 7 7 7 7 8 9 9 9 10 11 12 12 12 12 12 11 10 10 9 8 8 8 8 8 8 9 9 8 7 8 10 9 10 10 8 7 7 10 11 10 9 10 13 14 17 16 14 13
11 14 11 7 6 5 5 5 5 5 5 5 6 6 6 7 9 9 9 8 9 9 8 8 8 8 8 8 8 8 8 9 10 9 9 9 9 9 10 11 11 15 16 12 14 10 10 11 10 10 14 18 19 19
14 13 14 16 15 13 11 11 9 8 8 7 7 8 10 8 7 6 6 8 8 9 10 11 11 12 13 13 13 12 12 11 10 11 12 12 13 14 14 13 16 15 13 13 13 13 14 14 13 11 19 21 16 9
11 11 12 11 12 11 11 10 9 10 8 10 11 11 12 13 14 15 16 17 18 18 18 16 15 17 18 19 20 21 20 16 14 14 15 16 16 16 16 14 11 15 12 7 8 14 15 13 12 14 16 18 16 12
16 15 15 14 14 14 14 13 14 15 16 16 16 17 17 18 19 20 20 19 17 17 18 19 18 18 18 18 18 19 19 19 18 17 15 17 19 16 13 10 11 14 16 14 7 6 6 6 6 6 9 10 10 14
13 13 13 11 11 12 14 15 16 18 19 19 18 17 16 16 15 15 15 15 15 15 13 13 14 16 15 14 15 17 17 16 17 18 18 14 12 12 11 11 12 13 13 12 9 8 4 2 4 8 12 10 15 13
14 14 16 18 19 16 14 12 11 12 12 10 9 8 7 8 7 6 5 7 10 14 15 13 13 13 14 14 16 18 19 16 13 6 3 7 7 6 6 4 2 3 5 8 9 10 10 16 12 16 14 13 15 17
8 8 8 12 13 13 10 6 4 6 8 8 10 12 14 15 15 17 13 12 12 9 8 7 6 5 6 6 6 7 7 8 8 9 10 11 12 10 7 6 5 8 13 15 16 15 15 13 10 11 13 18 13 7
Height
5235 5236 5238 5242 5246 5251 5259 5269 5281 5294 5308 5321 5334 5347 5361 5374 5385 5398 5416 5423 5437 5450 5464 5474 5483 5492 5501 5509 5518 5525 5528 5533 5539 5543 5547 5550 5553 5556 5557 5559 5560 5560 5557 5556 5553 5552 5554 5553 5552 5552 5552 5551 5551 5551
5227 5228 5230 5234 5240 5248 5255 5263 5274 5286 5299 5313 5326 5339 5353 5366 5378 5389 5403 5418 5429 5441 5456 5466 5474 5484 5493 5501 5506 5514 5523 5528 5533 5536 5541 5544 5546 5548 5550 5550 5551 5550 5550 5547 5547 5549 5548 5548 5548 5547 5547 5547 5547 5547
5216 5217 5219 5225 5231 5239 5250 5261 5271 5281 5293 5306 5319 5331 5345 5357 5369 5385 5399 5410 5422 5437 5450 5460 5471 5479 5487 5496 5502 5509 5515 5521 5526 5531 5534 5535 5537 5541 5542 5542 5541 5541 5540 5539 5540 5543 5542 5543 5543 5542 5542 5543 5543 5543
5207 5205 5207 5213 5221 5232 5244 5257 5270 5282 5293 5304 5315 5326 5338 5350 5363 5377 5391 5405 5419 5434 5445 5457 5466 5474 5483 5489 5497 5503 5509 5515 5521 5525 5527 5529 5532 5534 5534 5533 5532 5533 5532 5534 5534 5536 5535 5537 5536 5536 5536 5537 5537 5537
5201 5194 5192 5198 5210 5225 5241 5254 5268 5281 5294 5306 5317 5327 5337 5349 5362 5375 5387 5401 5416 5433 5445 5454 5462 5471 5478 5485 5492 5498 5504 5510 5515 5519 5522 5523 5525 5527 5525 5524 5525 5525 5526 5526 5527 5529 5528 5529 5529 5529 5529 5529 5530 5531
5200 5192 5187 5193 5207 5225 5244 5256 5269 5283 5296 5308 5318 5328 5338 5350 5363 5374 5386 5399 5416 5432 5446 5454 5462 5469 5475 5482 5489 5494 5500 5505 5509 5513 5516 5518 5519 5519 5517 5516 5518 5517 5519 5520 5521 5522 5521 5521 5520 5519 5520 5520 5521 5523
5210 5203 5202 5208 5219 5234 5250 5262 5273 5286 5299 5311 5321 5331 5343 5355 5365 5381 5396 5411 5420 5431 5441 5448 5461 5466 5472 5478 5485 5491 5496 5501 5505 5508 5510 5511 5512 5510 5510 5512 5511 5512 5514 5514 5514 5513 5513 5511 5510 5510 5510 5510 5512 5513
5225 5223 5223 5227 5237 5249 5260 5270 5281 5292 5304 5315 5324 5337 5349 5360 5372 5385 5403 5414 5423 5433 5441 5446 5454 5465 5471 5477 5484 5489 5494 5497 5500 5502 5504 5504 5504 5503 5505 5506 5507 5508 5508 5507 5506 5504 5502 5500 5499 5499 5499 5500 5502 5504
5242 5243 5246 5250 5256 5263 5271 5280 5289 5300 5310 5320 5332 5345 5356 5368 5384 5398 5411 5422 5431 5440 5444 5449 5455 5464 5470 5476 5482 5487 5491 5493 5495 5496 5497 5497 5498 5500 5500 5501 5501 5501 5501 5499 5497 5495 5493 5490 5488 5487 5487 5489 5491 5495
5265 5261 5260 5263 5269 5275 5281 5288 5297 5307 5318 5329 5340 5352 5366 5380 5393 5404 5416 5425 5433 5439 5445 5451 5458 5465 5470 5475 5480 5483 5486 5487 5489 5491 5490 5493 5496 5496 5495 5496 5496 5496 5494 5492 5489 5488 5486 5484 5481 5479 5479 5480 5483 5486
5291 5287 5285 5285 5288 5293 5299 5306 5314 5324 5334 5346 5358 5370 5381 5391 5400 5409 5417 5423 5431 5436 5444 5452 5458 5464 5468 5472 5475 5478 5480 5481 5482 5486 5487 5490 5493 5491 5491 5492 5492 5490 5488 5486 5484 5482 5480 5477 5475 5473 5473 5474 5477 5479
5319 5316 5314 5314 5316 5320 5326 5333 5342 5352 5363 5372 5379 5386 5393 5398 5406 5414 5418 5424 5430 5439 5446 5452 5458 5463 5466 5469 5472 5474 5475 5476 5478 5482 5483 5488 5488 5487 5488 5488 5487 5485 5483 5481 5479 5477 5474 5472 5469 5468 5469 5470 5472 5473
5341 5341 5341 5342 5345 5348 5352 5358 5364 5371 5378 5384 5391 5395 5400 5406 5411 5416 5420 5428 5435 5442 5449 5455 5459 5461 5463 5465 5467 5469 5471 5473 5477 5479 5483 5484 5483 5485 5484 5483 5482 5480 5479 5477 5475 5472 5469 5467 5465 5464 5465 5466 5467 5468
5356 5358 5361 5362 5364 5367 5371 5376 5383 5387 5393 5397 5402 5406 5409 5414 5418 5424 5430 5434 5439 5443 5448 5452 5454 5456 5459 5461 5463 5465 5469 5472 5474 5478 5480 5479 5480 5480 5479 5478 5477 5476 5475 5473 5470 5466 5463 5461 5460 5460 5461 5462 5463 5465
5368 5369 5372 5375 5378 5381 5386 5389 5392 5397 5403 5407 5409 5411 5415 5420 5424 5428 5432 5436 5438 5441 5444 5447 5448 5452 5454 5458 5462 5466 5468 5470 5474 5475 5475 5476 5476 5475 5474 5474 5473 5472 5470 5468 5465 5462 5459 5456 5456 5457 5458 5459 5460 5462
5378 5378 5381 5384 5386 5389 5392 5397 5400 5403 5407 5410 5414 5417 5420 5423 5426 5429 5431 5434 5436 5438 5441 5444 5447 5451 5454 5458 5462 5464 5468 5470 5471 5471 5472 5471 5471 5471 5470 5469 5468 5467 5465 5464 5462 5459 5456 5454 5454 5455 5455 5456 5457 5458
5388 5389 5390 5391 5393 5395 5398 5400 5403 5406 5409 5412 5415 5417 5419 5421 5424 5427 5430 5432 5435 5439 5442 5446 5449 5452 5456 5459 5461 5463 5465 5466 5467 5467 5468 5467 5467 5466 5466 5465 5463 5461 5460 5458 5457 5456 5454 5452 5452 5452 5453 5453 5454 5455
5393 5395 5397 5398 5401 5403 5405 5407 5409 5411 5413 5415 5416 5418 5419 5421 5425 5428 5431 5434 5438 5440 5443 5446 5449 5453 5455 5457 5459 5460 5462 5462 5463 5463 5464 5464 5463 5462 5461 5460 5458 5456 5454 5453 5453 5452 5451 5449 5449 5449 5450 5450 5451 5452
5397 5399 5401 5402 5404 5406 5408 5409 5411 5412 5414 5416 5417 5419 5421 5423 5426 5428 5431 5434 5437 5440 5443 5446 5448 5451 5453 5455 5456 5457 5458 5459 5459 5459 5459 5459 5459 5457 5456 5455 5453 5451 5449 5448 5448 5448 5448 5447 5446 5446 5446 5446 5446 5447
5400 5401 5403 5405 5406 5408 5410 5411 5413 5415 5416 5418 5419 5421 5423 5425 5427 5429 5432 5434 5437 5439 5442 5445 5446 5448 5450 5452 5453 5453 5454 5454 5455 5455 5455 5454 5454 5452 5451 5450 5449 5447 5446 5445 5444 5444 5444 5444 5443 5443 5443 5442 5442 5442
5402 5403 5404 5406 5408 5409 5411 5412 5414 5415 5417 5419 5420 5422 5424 5425 5427 5429 5431 5433 5435 5438 5440 5442 5444 5446 5447 5448 5448 5449 5449 5450 5450 5450 5450 5449 5449 5448 5447 5446 5445 5443 5442 5441 5441 5440 5440 5440 5439 5439 5438 5438 5438 5437
5402 5403 5404 5405 5407 5408 5410 5412 5413 5415 5416 5418 5419 5421 5422 5424 5426 5428 5430 5432 5433 5436 5438 5439 5440 5441 5442 5443 5444 5445 5445 5445 5445 5445 5445 5444 5444 5443 5442 5441 5440 5439 5438 5437 5437 5436 5436 5435 5434 5434 5434 5433 5433 5432
5403 5404 5404 5405 5407 5408 5410 5411 5412 5414 5415 5417 5418 5420 5421 5423 5425 5426 5428 5430 5431 5433 5434 5435 5436 5437 5438 5439 5439 5440 5440 5440 5440 5440 5440 5439 5439 5438 5437 5436 5435 5434 5434 5433 5432 5431 5430 5430 5429 5429 5428 5428 5427 5426
5404 5404 5404 5405 5407 5408 5409 5410 5411 5413 5414 5415 5417 5418 5420 5421 5423 5424 5426 5427 5428 5429 5430 5431 5432 5433 5434 5434 5434 5435 5435 5435 5435 5435 5434 5434 5433 5433 5432 5431 5430 5429 5428 5427 5426 5425 5425 5424 5423 5422 5421 5420 5419 5418
5406 5406 5407 5407 5407 5409 5409 5410 5411 5412 5413 5414 5416 5417 5418 5419 5421 5422 5423 5424 5424 5425 5426 5427 5428 5428 5429 5429 5429 5429 5430 5430 5429 5429 5428 5428 5427 5426 5425 5424 5424 5423 5422 5421 5420 5419 5418 5417 5415 5414 5413 5412 5410 5409
5403 5404 5406 5406 5407 5408 5409 5410 5411 5412 5412 5414 5415 5416 5416 5417 5418 5419 5419 5420 5420 5421 5421 5422 5422 5422 5422 5423 5423 5423 5423 5423 5423 5422 5422 5422 5421 5420 5419 5419 5418 5417 5416 5415 5414 5413 5411 5410 5408 5407 5405 5403 5402 5400
5400 5401 5403 5404 5405 5406 5407 5408 5409 5410 5411 5411 5412 5413 5413 5414 5415 5415 5415 5415 5415 5416 5416 5416 5416 5416 5416 5416 5415 5415 5415 5415 5415 5415 5414 5414 5413 5413 5413 5412 5411 5410 5409 5408 5407 5406 5404 5403 5401 5399 5397 5395 5393 5392
5396 5397 5398 5400 5400 5402 5403 5404 5404 5405 5406 5407 5407 5407 5408 5408 5409 5409 5409 5409 5409 5409 5408 5408 5408 5408 5407 5407 5407 5406 5406 5406 5406 5406 5406 5406 5406 5406 5405 5404 5403 5402 5402 5401 5400 5399 5397 5396 5394 5392 5390 5387 5386 5385
5392 5393 5394 5395 5396 5397 5397 5398 5399 5400 5400 5400 5401 5401 5401 5401 5401 5401 5401 5401 5401 5401 5401 5400 5400 5399 5399 5398 5398 5397 5397 5397 5398 5398 5398 5398 5398 5398 5397 5397 5397 5396 5396 5395 5394 5392 5391 5389 5387 5385 5383 5381 5379 5378
5388 5388 5389 5390 5391 5391 5392 5393 5393 5393 5394 5394 5394 5394 5394 5394 5394 5394 5394 5394 5393 5393 5393 5393 5392 5392 5391 5391 5390 5390 5390 5390 5391 5391 5391 5392 5392 5392 5392 5391 5391 5390 5389 5389 5388 5386 5385 5383 5381 5379 5377 5375 5372 5370
5384 5384 5385 5385 5385 5386 5387 5387 5388 5388 5389 5389 5389 5389 5389 5389 5389 5388 5388 5388 5387 5387 5387 5387 5386 5386 5385 5385 5385 5385 5385 5385 5385 5385 5386 5386 5386 5387 5386 5386 5385 5384 5383 5382 5381 5380 5378 5376 5374 5371 5369 5366 5364 5361
5381 5381 5381 5382 5382 5383 5383 5384 5384 5385 5385 5386 5386 5385 5385 5385 5385 5384 5384 5383 5383 5383 5383 5382 5382 5381 5381 5381 5380 5380 5380 5380 5380 5381 5381 5381 5381 5381 5380 5380 5379 5378 5377 5375 5373 5371 5369 5367 5365 5362 5360 5357 5355 5353
5379 5379 5379 5379 5379 5380 5380 5381 5382 5382 5382 5382 5382 5382 5381 5381 5380 5379 5377 5377 5377 5377 5377 5377 5377 5377 5376 5376 5376 5376 5376 5375 5375 5375 5375 5375 5374 5374 5373 5372 5371 5370 5368 5366 5364 5362 5360 5358 5356 5354 5351 5349 5346 5344